[[{"header":{"parameterUnit":"m.s-1","parameterCategory":1,"la1":30.2991,"la2":30.254,"lo1":-89.0895,"lo2":-89.0444,"dy":0.0017,"dx":0.0017,"nx":28,"ny":28,"refTime":"2023-07-27T21:00:00:Z","depth":0,"parameterNumber":2,"parameterNumberName":"U-component_of_WINDS"},"data":[0,0,0,0,0,0,0,0,0,0,0,0,0,0,0,0,0,0,0,0,0,0,0,0,0,0,0,0,0,0,0,0,0,0,0,0,0,0,0,0,0,0,0,0,0,0,0,0,0,0,0,0,0,0,0,0,0,0,0.8506,0.8508,0,0.863,0.8631,0.8632,0.8675,0.8674,0.8674,0.8673,0.8802,0.8805,0.8809,0,0,0,0,0,0,0,0,0,0,0,0,0,0.8308,0.8312,0.8506,0.8508,0.8509,0.8629,0.8631,0.8633,0.8675,0.8674,0.8673,0.8673,0.88,0.8805,0.8809,0,0,0,0,0,0,0,0,0,0,0,0,0,0.8409,0.8313,0.8506,0.8545,0.8549,0.8629,0.8631,0.8633,0.8675,0.8674,0.8673,0.8673,0.8799,0.8804,0.881,0.8861,0,0,0.8828,0.883,0,0,0,0,0,0,0,0,0.8403,0.8416,0.8537,0.8542,0.8547,0.8636,0.8608,0.871,0.8675,0.8627,0.8673,0.8672,0.8747,0.8757,0.8782,0.8867,0.8873,0.8828,0.8832,0.8834,0.8836,0,0,0,0,0,0,0,0.8396,0.8411,0.8555,0.8539,0.8545,0.8556,0.857,0.8628,0.869,0.8631,0.8635,0.8649,0.875,0.8776,0.8785,0.8874,0.8828,0.8833,0.8837,0.8839,0.9007,0.9008,0,0,0,0,0,0,0.8383,0.8405,0.8551,0.8559,0.8472,0.856,0.8575,0.8608,0.8689,0.8701,0.8649,0.865,0.8767,0.8778,0.879,0.8855,0.8834,0.884,0.8843,0.9006,0.9007,0.9009,0,0,0,0,0,0,0.8378,0.8395,0.8546,0.8483,0.8503,0.8565,0.8601,0.8611,0.8638,0.8703,0.8714,0.8665,0.8767,0.8782,0.8843,0.886,0.8843,0.8848,0.9005,0.9007,0.9008,0.8985,0,0,0,0,0,0,0.8372,0.8393,0.8413,0.8483,0.8506,0.8596,0.8602,0.8614,0.8647,0.865,0.872,0.8731,0.8767,0.8834,0.8849,0.8868,0.8852,0.9004,0.9006,0.9008,0.8984,0.8985,0.8986,0,0,0,0,0,0.8365,0.8402,0.8414,0.8431,0.8532,0.8597,0.8611,0.865,0.8648,0.8669,0.8711,0.8729,0.8855,0.884,0.8857,0.8878,0.9003,0.9005,0.9007,0.8984,0.8985,0.8986,0,0,0,0,0,0,0.8333,0.8412,0.8426,0.8486,0.8535,0.8604,0.8631,0.865,0.8701,0.8701,0.8749,0.8764,0.8822,0.8856,0.8837,0.8931,0.893,0.8936,0.8907,0.8908,0.8909,0.89,0.8857,0,0,0,0,0,0.8333,0.8379,0.8446,0.8493,0.8516,0.8569,0.8599,0.8626,0.8678,0.8699,0.8745,0.8795,0.8847,0.8879,0.893,0.8989,0.9005,0.9012,0.9013,0.9013,0.9018,0.9051,0.9055,0.9016,0.9016,0.9016,0,0,0.8333,0.8382,0.8408,0.8487,0.8528,0.8575,0.8586,0.8635,0.8671,0.8706,0.8767,0.8802,0.8862,0.8922,0.8951,0.8952,0.9032,0.9016,0.9016,0.902,0.9054,0.9058,0.9061,0.9017,0.9017,0.9017,0,0,0.8358,0.8399,0.8443,0.8483,0.8544,0.8579,0.8589,0.8656,0.8681,0.8742,0.877,0.8813,0.89,0.8941,0.8973,0.9013,0.9032,0.9028,0.9033,0.9065,0.9068,0.9071,0.9085,0.9089,0.9032,0.9032,0.9032,0,0.8351,0.8422,0.8463,0.8511,0.8545,0.8578,0.8623,0.866,0.8735,0.8757,0.8758,0.8867,0.891,0.898,0.8989,0.9015,0.9028,0.902,0.9064,0.9067,0.9071,0.9085,0.909,0.9031,0.9031,0.9031,0.9032,0,0.841,0.8459,0.8487,0.8558,0.8595,0.8641,0.8689,0.8722,0.8744,0.878,0.8841,0.8893,0.8955,0.8974,0.8997,0.9047,0.9046,0.9055,0.9055,0.9073,0.9087,0.9093,0.903,0.903,0.9031,0.9031,0,0,0.8418,0.851,0.852,0.8552,0.8622,0.8661,0.8708,0.8767,0.8795,0.8845,0.8886,0.8958,0.8967,0.9003,0.9031,0.906,0.9088,0.9065,0.9067,0.9067,0.9146,0.9139,0.9144,0.91,0.9102,0.9102,0.9141,0,0.8452,0.8538,0.8576,0.8644,0.869,0.8722,0.8764,0.8811,0.8845,0.8889,0.8927,0.8977,0.8985,0.9007,0.9036,0.9078,0.9104,0.9076,0.9139,0.9141,0.9123,0.9152,0.9145,0.9178,0.9147,0.9148,0.9148,0,0.8503,0.8552,0.8625,0.8689,0.8709,0.8746,0.8803,0.8845,0.8899,0.8922,0.8962,0.8989,0.9041,0.9037,0.9109,0.9088,0.9117,0.9141,0.9143,0.9151,0.9146,0.916,0.919,0.9195,0.9157,0.9157,0.9156,0,0.8501,0.8586,0.864,0.8667,0.8743,0.8767,0.88,0.8854,0.8887,0.8937,0.8959,0.9015,0.9046,0.9089,0.913,0.9124,0.9198,0.9198,0.9218,0.9217,0.9233,0.9231,0.9268,0.9251,0.9251,0.9251,0.9251,0,0.8534,0.8577,0.8641,0.8674,0.8723,0.8767,0.8815,0.885,0.8897,0.8938,0.897,0.9008,0.9061,0.9105,0.9138,0.9192,0.9206,0.9226,0.9234,0.9223,0.9221,0.9243,0.9241,0.9252,0.9252,0.9252,0.9251,0,0.8541,0.8585,0.8646,0.8713,0.873,0.8764,0.8821,0.8855,0.889,0.8942,0.8956,0.9012,0.9067,0.9112,0.9184,0.9206,0.9262,0.9272,0.9243,0.9248,0.9266,0.9263,0.9318,0.9327,0.9303,0.9304,0.9304,0,0.8559,0.8593,0.8663,0.8692,0.8724,0.8772,0.8806,0.885,0.8884,0.8948,0.8974,0.903,0.9078,0.9163,0.9211,0.9266,0.9277,0.9292,0.9285,0.9273,0.9277,0.9274,0.9278,0.9292,0.9292,0.9292,0.9293,0,0.8587,0.8607,0.8654,0.8709,0.8748,0.8794,0.884,0.8863,0.8915,0.8952,0.9007,0.9044,0.9117,0.9172,0.9232,0.9267,0.9289,0.9294,0.9302,0.9291,0.9273,0.9283,0.9244,0.9293,0.9293,0.9293,0.9293,0.9293,0.86,0.8631,0.8685,0.8737,0.8776,0.8819,0.8854,0.8893,0.894,0.9002,0.9025,0.9082,0.9136,0.9218,0.9253,0.9298,0.9301,0.9312,0.9315,0.9317,0.9315,0.9265,0.9309,0.9309,0.9309,0.9309,0.931,0,0.8629,0.8665,0.8712,0.8776,0.8816,0.8833,0.8885,0.8918,0.8967,0.9015,0.906,0.9124,0.9178,0.9229,0.9286,0.9313,0.9324,0.9326,0.9325,0.9332,0.931,0.9297,0.9316,0.9316,0.9316,0.9316,0.9316,0.9316,0.8649,0.8703,0.8729,0.8803,0.884,0.8895,0.8923,0.8963,0.9001,0.907,0.9115,0.9148,0.9197,0.9258,0.9308,0.9322,0.9341,0.9341,0.9357,0.9335,0.9334,0.9333,0.9321,0.9344,0.9344,0.9376,0.9376,0.9376]},{"header":{"parameterUnit":"m.s-1","parameterCategory":1,"la1":30.2991,"la2":30.254,"lo1":-89.0895,"lo2":-89.0444,"dy":0.0017,"dx":0.0017,"nx":28,"ny":28,"refTime":"2023-07-27T21:00:00:Z","depth":0,"parameterNumber":3,"parameterNumberName":"V-component_of_WINDS"},"data":[0,0,0,0,0,0,0,0,0,0,0,0,0,0,0,0,0,0,0,0,0,0,0,0,0,0,0,0,0,0,0,0,0,0,0,0,0,0,0,0,0,0,0,0,0,0,0,0,0,0,0,0,0,0,0,0,0,0,1.9858,1.9857,0,1.977,1.9769,1.9768,1.9749,1.975,1.975,1.9751,1.9654,1.9651,1.9647,0,0,0,0,0,0,0,0,0,0,0,0,0,2.0003,2.0001,1.9858,1.9857,1.9856,1.977,1.9769,1.9767,1.9749,1.975,1.9751,1.9751,1.9655,1.9651,1.9647,0,0,0,0,0,0,0,0,0,0,0,0,0,1.993,2.0,1.9858,1.9836,1.9833,1.977,1.9769,1.9767,1.9749,1.975,1.9751,1.9752,1.9656,1.9651,1.9647,1.9596,0,0,1.9632,1.963,0,0,0,0,0,0,0,0,1.9934,1.9925,1.9841,1.9838,1.9834,1.9772,1.9784,1.971,1.9749,1.9781,1.9751,1.9752,1.9692,1.9684,1.9665,1.9592,1.9588,1.9631,1.9628,1.9626,1.9625,0,0,0,0,0,0,0,1.9939,1.9928,1.9823,1.9839,1.9836,1.9829,1.9819,1.977,1.9731,1.9778,1.9776,1.9767,1.969,1.967,1.9662,1.9586,1.9631,1.9627,1.9624,1.9622,1.9467,1.9465,0,0,0,0,0,0,1.9949,1.9933,1.9825,1.982,1.9888,1.9825,1.9815,1.9791,1.9732,1.9724,1.9766,1.9766,1.9677,1.9668,1.9659,1.9596,1.9626,1.9622,1.9619,1.9468,1.9466,1.9465,0,0,0,0,0,0,1.9952,1.994,1.9829,1.9876,1.9861,1.9822,1.9795,1.9788,1.9768,1.9723,1.9715,1.9753,1.9678,1.9666,1.9612,1.9592,1.962,1.9615,1.9469,1.9467,1.9466,1.947,0,0,0,0,0,0,1.9957,1.9941,1.9923,1.9876,1.9859,1.9786,1.9793,1.9786,1.9761,1.976,1.9708,1.9701,1.9678,1.962,1.9608,1.9586,1.9611,1.9471,1.9468,1.9466,1.9471,1.9468,1.9466,0,0,0,0,0,1.9962,1.9926,1.9922,1.991,1.9836,1.9785,1.9775,1.9752,1.9759,1.974,1.9711,1.9702,1.9597,1.9614,1.9601,1.9577,1.9472,1.9469,1.9466,1.9473,1.9469,1.9466,0,0,0,0,0,0,1.997,1.992,1.9915,1.9863,1.9829,1.9782,1.9757,1.9749,1.9709,1.971,1.968,1.9669,1.9617,1.9592,1.9612,1.9525,1.9534,1.9529,1.9544,1.954,1.9537,1.9544,1.9607,0,0,0,0,0,1.9966,1.9931,1.9888,1.9847,1.983,1.9797,1.9773,1.9758,1.972,1.9705,1.9672,1.9634,1.9592,1.9564,1.9523,1.9468,1.9455,1.9445,1.9442,1.944,1.9435,1.9403,1.9398,1.9456,1.9456,1.9456,0,0,1.9957,1.9925,1.9904,1.9848,1.9819,1.9781,1.9784,1.9744,1.9715,1.9698,1.9646,1.9621,1.9576,1.9521,1.9495,1.9498,1.9417,1.9437,1.9436,1.9431,1.94,1.9394,1.939,1.9454,1.9454,1.9455,0,0,1.9921,1.9894,1.9857,1.9829,1.9787,1.9765,1.9756,1.971,1.9693,1.9642,1.9628,1.9592,1.9521,1.9489,1.9464,1.9417,1.9407,1.9404,1.9389,1.9358,1.9354,1.935,1.9332,1.9326,1.9399,1.9399,1.9399,0,1.9914,1.9859,1.9838,1.9799,1.9773,1.9759,1.972,1.9693,1.9638,1.962,1.9625,1.9536,1.9504,1.9442,1.9431,1.9411,1.9398,1.9409,1.9357,1.9352,1.9348,1.9331,1.9324,1.9399,1.9399,1.9399,1.9399,0,1.9852,1.9814,1.9789,1.974,1.9711,1.9672,1.9643,1.9617,1.9604,1.9581,1.9528,1.949,1.9441,1.9425,1.9412,1.936,1.9364,1.9363,1.9371,1.9343,1.9326,1.9319,1.9399,1.9399,1.9399,1.9399,0,0,1.9818,1.9759,1.9749,1.9727,1.968,1.9648,1.9608,1.9563,1.954,1.9503,1.9467,1.9408,1.9407,1.9378,1.9361,1.9334,1.9298,1.9337,1.9335,1.933,1.9239,1.9239,1.9232,1.9292,1.9291,1.929,1.9242,0,1.9776,1.9706,1.9686,1.9626,1.959,1.9576,1.954,1.9506,1.9484,1.9448,1.9422,1.938,1.9383,1.9365,1.9338,1.9309,1.9279,1.9312,1.9257,1.9255,1.9268,1.9223,1.9223,1.918,1.9235,1.9234,1.9234,0,1.9717,1.9682,1.9619,1.9577,1.9561,1.953,1.9486,1.9453,1.9413,1.9399,1.9367,1.9353,1.9308,1.932,1.9257,1.9279,1.9255,1.9237,1.9235,1.9228,1.9242,1.9214,1.9165,1.9159,1.9223,1.9224,1.9225,0,1.9698,1.9634,1.9588,1.9569,1.9519,1.9497,1.9475,1.9437,1.9411,1.9372,1.9354,1.931,1.9286,1.9251,1.9224,1.9235,1.9163,1.9172,1.9147,1.9148,1.9132,1.9133,1.9078,1.9118,1.9118,1.9118,1.9119,0,1.9652,1.9614,1.9579,1.9551,1.9507,1.9484,1.944,1.9417,1.9383,1.9348,1.9333,1.93,1.9267,1.9229,1.9208,1.9158,1.9147,1.9132,1.9127,1.9133,1.9135,1.9117,1.9118,1.9117,1.9117,1.9117,1.9118,0,1.9622,1.9598,1.9547,1.9504,1.9492,1.9462,1.9424,1.9395,1.9373,1.9329,1.9317,1.9281,1.9235,1.9206,1.9147,1.9133,1.9078,1.9074,1.9093,1.909,1.9066,1.9069,1.8996,1.8985,1.9034,1.9034,1.9033,0,1.9595,1.9565,1.952,1.9497,1.9475,1.9438,1.9412,1.9387,1.9361,1.9314,1.929,1.9245,1.9207,1.9135,1.9102,1.9057,1.905,1.9028,1.9043,1.9051,1.9049,1.9051,1.9047,1.9025,1.9025,1.9025,1.9025,0,1.9548,1.9537,1.9502,1.9462,1.9432,1.9399,1.9365,1.9347,1.9316,1.9286,1.9241,1.9212,1.9154,1.9108,1.9061,1.9035,1.9024,1.9021,1.9012,1.9018,1.903,1.9022,1.9085,1.9022,1.9022,1.9022,1.9022,1.9023,1.9517,1.9491,1.9455,1.9416,1.9389,1.9358,1.9329,1.9304,1.9267,1.9219,1.9206,1.9159,1.9119,1.9054,1.9028,1.8989,1.8991,1.8979,1.8976,1.8973,1.8973,1.9037,1.898,1.898,1.898,1.898,1.898,0,1.9469,1.9446,1.941,1.9365,1.9334,1.933,1.9292,1.9266,1.9225,1.9191,1.9155,1.9102,1.9058,1.9022,1.8976,1.8952,1.8946,1.8941,1.8942,1.8936,1.8974,1.8986,1.8947,1.8947,1.8947,1.8947,1.8947,1.8947,1.944,1.9395,1.938,1.932,1.9297,1.9253,1.9232,1.9202,1.9175,1.9118,1.9083,1.9061,1.9024,1.8976,1.8935,1.8925,1.8908,1.8904,1.8893,1.8929,1.8933,1.8936,1.8947,1.8901,1.8901,1.8858,1.8857,1.8857]}]]